Location: Unspecified
(37.4650°N, 3.9240°W)
Time: 21:59:16
(UTC+00:00)

Daily predictions for brighter satellites

Satellite Brightness Start Highest point End
(mag) Time Altitude Azimuth Time Altitude Azimuth Time Altitude Azimuth
CSL-04 Rocket 4.0 19:03:39 10° SE 19:08:43 46° ENE 19:13:45 10° N
ARGOS 3.2 19:04:53 10° SSE 19:10:15 74° ENE 19:15:38 10° N
YAOGAN 1 2.6 19:06:43 10° SSE 19:11:02 87° W 19:15:23 10° NNW
SAR-Lupe-4 3.7 19:07:35 10° NNE 19:11:06 50° E 19:14:35 10° S
SL-16 R/B 3.6 19:08:33 10° N 19:12:46 21° NE 19:16:57 10° ESE
Cosmos 2233 Rocket 4.0 19:08:50 10° S 19:15:04 84° E 19:21:24 10° N
PSLV R/B 4.2 19:11:25 10° N 19:15:30 76° WNW 19:19:38 10° SSW
USA 186 3.3 19:13:05 10° ESE 19:15:33 20° ENE 19:18:02 10° NNE
Cosmos 1980 Rocket 2.2 19:17:58 10° NNW 19:23:39 89° ENE 19:29:16 10° SSE
Cosmos 1697 Rocket 4.0 19:20:50 10° NW 19:26:06 42° WSW 19:31:20 10° S
Okean 1-7 Rocket 3.6 19:22:47 10° N 19:27:20 79° E 19:31:54 10° S
Cosmos 1544 Rocket 3.6 19:23:06 10° S 19:27:31 90° E 19:31:56 10° N
CZ-2C R/B 2.8 19:22:54 10° N 19:28:05 77° WNW 19:33:17 10° SSW
SAR-Lupe-1 4.2 19:26:50 10° N 19:30:26 80° WNW 19:34:00 10° SSW
H-2A R/B 3.2 19:25:41 10° S 19:30:36 45° W 19:35:26 10° NNW
SL-27 R/B 4.0 19:29:22 10° SE 19:31:40 16° E 19:33:57 10° ENE
Ariane Rocket 4.2 19:28:14 10° ESE 19:32:11 24° ENE 19:36:11 10° NNE
USA 276 2.5 19:29:14 10° NW 19:32:19 50° NE 19:34:43 15° ESE
NOSS 3-4 (A) 4.2 19:28:33 10° SSE 19:33:02 24° ESE 19:37:38 10° ENE
NOSS 3-4 (C) 4.3 19:28:38 10° SSE 19:33:07 24° ESE 19:37:44 10° ENE
Cosmos 1626 Rocket 3.8 19:29:36 10° N 19:33:51 49° E 19:38:07 10° SSE
Cosmos 494 Rocket 4.2 19:29:44 10° S 19:34:44 49° ESE 19:39:48 10° NNE
SEDSat Delta rocket 4.4 19:29:40 10° WSW 19:35:56 44° S 19:40:52 14° ESE
SME Rocket 2.9 19:32:20 10° NNE 19:36:07 75° ESE 19:40:41 10° S
Cosmos 1908 3.7 19:34:38 10° SSW 19:38:26 65° W 19:42:15 10° N
Helios 1A Rocket 2.9 19:40:42 10° SSE 19:44:44 83° WSW 19:48:49 10° NNW
Resurs 01 Rocket 3.5 19:44:26 13° E 19:45:35 14° ENE 19:47:53 10° NNE
ATLAS 2AS CENTAUR R/B 3.9 19:40:28 10° SSE 19:46:31 25° ESE 19:52:36 10° ENE
Cosmos 292 Rocket 3.9 19:43:09 10° N 19:47:58 60° ENE 19:52:21 12° SSE
Cosmos 482 Debris 4.0 19:45:28 10° SSW 19:48:32 33° SE 19:49:15 27° ESE
SL-08 RB Rocket 4.3 19:44:30 10° S 19:49:07 60° W 19:53:44 10° NNW
BREEZE-M DEB (TANK) 3.0 19:46:31 10° WSW 19:49:19 65° NNW 19:56:59 10° NE
CZ-4 R/B 3.9 19:46:05 10° SSW 19:49:31 25° W 19:53:00 10° NW
ATLAS 5 CENTAUR R/B 1.2 19:45:51 10° SSW 19:49:42 79° ESE 19:53:54 10° NE
Aurora 2 Rocket 4.5 19:48:55 10° SSW 19:51:36 16° SSE 19:52:59 14° SE
Cosmos 2034 Rocket 4.4 19:47:41 10° SSE 19:53:22 41° E 19:59:07 10° NNE
FALCON 9 R/B 4.2 19:50:32 10° WSW 19:57:44 78° S 20:27:43 11° E
Cosmos 1110 Rocket 4.5 19:54:48 10° N 19:59:41 40° ENE 20:02:23 23° ESE
CZ-4C R/B 1.8 19:55:36 10° SSW 20:00:09 62° ESE 20:05:32 10° NE
BREEZE-M DEB (TANK) 3.6 19:58:56 10° WSW 20:01:29 61° NNW 20:06:47 10° NE
Cosmos 2322 Rocket 2.7 19:58:43 10° N 20:04:06 41° ENE 20:06:57 24° ESE
Cosmos 1328 3.8 20:00:41 10° N 20:04:44 85° W 20:08:43 10° S
Cosmos 1464 Rocket 4.0 19:59:29 10° S 20:05:50 77° E 20:12:08 10° N
Atlas Centaur 2 3.4 19:59:17 10° WSW 20:07:31 53° S 20:12:33 24° ESE
Lacrosse 5 rocket 1.4 20:05:09 10° SW 20:09:04 74° NW 20:13:16 10° NE
Cosmos 1331 Rocket 4.3 20:05:33 10° N 20:10:32 46° ENE 20:12:48 28° ESE
Cosmos 1441 Rocket 3.4 20:06:57 10° N 20:10:47 52° E 20:12:12 33° SE
Cosmos 1892 4.4 20:10:23 10° NNE 20:12:14 18° ENE 20:12:14 18° ENE
BREEZE-M DEB (TANK) 2.7 20:06:14 10° SW 20:13:37 51° SE 20:14:38 36° E
Resurs 1-3 3.9 20:12:03 31° SE 20:13:42 46° ENE 20:17:54 10° N
Nadezhda 4 Rocket 4.1 20:11:30 10° N 20:17:42 54° E 20:21:19 25° SSE
Haruka 4.4 19:52:29 10° W 20:17:49 61° S 20:21:14 28° ESE
Cosmos 220 Rocket 4.3 20:13:53 10° NNW 20:18:17 67° WSW 20:21:19 19° S
OBJECT-B 0.9 20:18:10 31° S 20:19:31 73° W 20:22:44 10° NNW
SPOT 3 Rocket 4.3 20:19:02 30° E 20:20:18 34° ENE 20:24:57 10° N
SJ-6B 2.8 20:17:56 21° S 20:20:20 72° WSW 20:24:04 10° NNW
USA 238 DEB 4.0 20:13:07 10° NNW 20:20:22 61° NE 20:24:25 29° SE
USA 238 4.0 20:13:13 10° NNW 20:20:28 60° NE 20:24:31 29° ESE
Cosmos 1184 Rocket 2.5 20:20:12 10° N 20:23:23 78° E 20:23:34 74° ESE
Cosmos 2228 2.9 20:19:42 13° S 20:23:33 74° E 20:27:55 10° N
OAO 2 Rocket 4.1 20:20:19 10° W 20:25:04 40° SSW 20:26:42 31° SSE
NOSS 3-2 (A) 4.1 20:19:40 10° NNW 20:27:31 83° ENE 20:32:49 27° SE
Cosmos 1833 4.1 20:28:37 10° S 20:34:09 64° ESE 20:39:44 10° NNE
Cosmos 1634 Rocket 4.4 20:34:25 37° ESE 20:35:35 40° E 20:41:22 10° NNE
Cosmos 1300 4.1 20:33:07 10° SSW 20:36:40 38° W 20:40:15 10° N
USA 215 3.4 20:35:46 35° ESE 20:38:36 62° NE 20:45:02 10° NW
Cosmos 1825 Rocket 3.4 20:35:30 10° N 20:39:52 77° E 20:40:31 62° SSE
Lacrosse 4 Rocket 3.1 20:39:16 10° NW 20:42:59 29° WSW 20:45:14 18° SSW
Cosmos 1758 Rocket 4.0 20:40:39 10° NNW 20:45:02 62° W 20:46:53 33° SSW
Cosmos 2098 Rocket 4.4 20:38:59 10° N 20:45:34 56° E 20:47:50 41° SE
ATLAS 3B R/B 4.4 20:43:25 10° N 20:48:12 19° NE 20:50:39 16° ENE
Meteor 2-10 Rocket 3.3 20:46:48 40° S 20:48:39 79° E 20:53:54 10° NNE
CZ-2C R/B 4.2 20:45:17 10° NNE 20:48:32 43° NE 20:48:32 43° NE
CENTAUR R/B 3.2 20:41:18 10° NNW 20:49:42 80° ENE 20:53:39 39° SE
Cosmos 2360 Rocket 2.3 20:44:34 10° NNW 20:50:09 55° ENE 20:50:49 52° E
Cosmos 2237 4.1 20:45:08 10° NNW 20:50:50 70° ENE 20:51:52 57° ESE
Cosmos 1269 Rocket 4.1 20:47:14 10° SSW 20:52:32 77° WNW 20:57:51 10° NNE
SL-16 R/B 2.7 20:51:41 10° NNW 20:57:12 54° WSW 20:59:31 33° SSW
OAO 3 Copernicus 4.4 20:54:42 10° W 20:59:33 64° SSW 20:59:33 64° SSW
BREEZE M DEB (TANK) 3.7 20:53:50 10° WSW 21:06:10 64° NW 21:08:01 33° NNE
Ariane Rocket 4.3 21:08:26 23° SSW 21:10:55 36° W 21:15:34 10° NNW
Cosmos 2219 Rocket 3.3 21:06:26 10° N 21:10:47 31° NE 21:10:47 31° NE
Meteor 2-1 Rocket 4.5 21:12:53 55° NE 21:12:53 55° NE 21:17:44 10° NNE
Cosmos 1455 4.4 21:17:29 20° N 21:17:29 20° N 21:18:41 10° N
Cosmos 1302 Rocket 4.0 21:11:10 10° NNW 21:16:18 83° NW 21:16:18 83° NW
Terra 4.0 21:23:30 16° NNE 21:23:30 16° NNE 21:24:53 10° NNE
Cosmos 2195 Rocket 4.4 21:15:11 10° N 21:21:29 86° W 21:22:15 71° S
Resurs 01 Rocket 2.4 21:21:59 49° W 21:21:59 49° W 21:25:57 10° NNW
SEDSat Delta rocket 4.4 21:16:03 10° WSW 21:20:59 42° SW 21:20:59 42° SW
NOSS 3-4 (A) 4.2 21:17:52 10° SW 21:23:25 48° NW 21:29:19 10° NNE
NOSS 3-4 (C) 4.2 21:17:54 10° SW 21:23:30 49° NW 21:29:27 10° NNE
Cosmos 2237 Rocket 4.4 21:24:17 10° NNE 21:26:08 13° NE 21:26:08 13° NE
Cosmos 1092 Rocket 4.1 21:22:16 10° NNW 21:28:31 69° W 21:29:29 60° SW
NOSS 3-2 (C) 4.3 21:25:10 10° NW 21:32:59 67° WSW 21:35:02 52° S
Cosmos 2333 Rocket 2.8 21:27:25 10° NNW 21:31:59 48° NNE 21:31:59 48° NNE
Cosmos 2058 Rocket 4.5 21:35:54 36° NW 21:35:54 36° NW 21:39:01 10° N
ATLAS 2AS CENTAUR R/B 3.2 21:29:01 10° SW 21:36:54 70° NW 21:44:45 10° NNE
Cosmos 2322 Rocket 3.8 21:43:17 10° NW 21:47:51 25° WSW 21:48:48 24° WSW
Lacrosse 5 rocket 4.4 21:46:53 10° WNW 21:48:57 13° NNW 21:51:05 10° N
Cosmos 2322 4.4 21:45:26 10° NNW 21:49:35 50° NNW 21:49:35 50° NNW
Cosmos 2344 3.7 21:47:54 10° SW 21:55:30 68° NW 22:03:09 10° NNE
Atlas Centaur 2 3.8 21:49:03 10° W 21:55:07 37° SW 21:55:07 37° SW
COSMOS 2428 3.9 22:06:22 10° NNW 22:09:54 39° NNW 22:09:54 39° NNW
USA 215 4.5 22:23:07 31° WSW 22:23:07 31° WSW 22:27:36 10° WNW
Cosmos 2360 Rocket 4.4 22:29:55 10° WNW 22:32:37 17° W 22:32:37 17° W
ATLAS 3B R/B 3.5 22:32:52 10° NNW 22:37:54 50° NNW 22:37:54 50° NNW
Cosmos 2219 Rocket 4.3 22:50:19 10° NW 22:52:31 21° WNW 22:52:31 21° WNW
Cosmos 2237 Rocket 4.4 23:06:11 10° NNW 23:07:58 21° NNW 23:07:58 21° NNW
